| time (UTC) | temp C | wind direction | speed KPH | gust KPH | rain 1hr cm | rain 24hr cm | rain mn cm | humidity % | barometer mb |
| 20260506061541 | 7 | 349 | 0.0 | 0.0 | 0.00 | 0.15 | 0.00 | 67 | 1011.3 |
| 20260506044525 | 10 | 355 | 1.6 | 9.7 | 0.00 | 0.15 | 0.15 | 53 | 1010.8 |
| 20260506043023 | 10 | 5 | 3.2 | 8.0 | 0.00 | 0.15 | 0.15 | 54 | 1010.7 |
| 20260506041524 | 10 | 5 | 1.6 | 6.4 | 0.00 | 0.15 | 0.15 | 57 | 1011.0 |
| 20260506040021 | 10 | 360 | 0.0 | 0.0 | 0.00 | 0.15 | 0.15 | 57 | 1010.9 |
| 20260506034521 | 10 | 360 | 0.0 | 0.0 | 0.00 | 0.15 | 0.15 | 60 | 1011.0 |
| 20260506033019 | 10 | 360 | 0.0 | 0.0 | 0.00 | 0.15 | 0.15 | 58 | 1010.7 |
| 20260506031521 | 10 | 360 | 0.0 | 0.0 | 0.00 | 0.15 | 0.15 | 58 | 1010.7 |
| 20260506030019 | 11 | 360 | 0.0 | 0.0 | 0.00 | 0.15 | 0.15 | 57 | 1010.3 |
| 20260506024515 | 11 | 360 | 0.0 | 3.2 | 0.00 | 0.15 | 0.15 | 52 | 1010.1 |
| 20260506023015 | 11 | 360 | 0.0 | 3.2 | 0.00 | 0.15 | 0.15 | 52 | 1010.2 |
| 20260506021514 | 11 | 360 | 0.0 | 0.0 | 0.00 | 0.15 | 0.15 | 50 | 1010.2 |
| 20260506020013 | 11 | 360 | 0.0 | 1.6 | 0.00 | 0.15 | 0.15 | 49 | 1009.9 |
| 20260506014514 | 11 | 360 | 0.0 | 3.2 | 0.00 | 0.15 | 0.15 | 48 | 1009.9 |
| 20260506013013 | 11 | 355 | 0.0 | 4.8 | 0.00 | 0.15 | 0.15 | 47 | 1009.4 |
| 20260506011512 | 11 | 5 | 0.0 | 4.8 | 0.00 | 0.15 | 0.15 | 46 | 1009.3 |
| 20260506010012 | 12 | 5 | 1.6 | 6.4 | 0.00 | 0.18 | 0.15 | 44 | 1009.1 |
| 20260506004511 | 12 | 345 | 0.0 | 4.8 | 0.00 | 0.18 | 0.15 | 44 | 1009.1 |
| 20260506003010 | 12 | 5 | 3.2 | 8.0 | 0.00 | 0.18 | 0.15 | 42 | 1008.8 |
| 20260506001510 | 12 | 355 | 1.6 | 9.7 | 0.00 | 0.18 | 0.15 | 42 | 1008.7 |
| 20260506000009 | 12 | 9 | 0.0 | 6.4 | 0.00 | 0.43 | 0.15 | 42 | 1008.9 |
| 20260505234514 | 12 | 355 | 3.2 | 12.9 | 0.00 | 0.43 | 0.15 | 39 | 1008.9 |
| 20260505233011 | 12 | 11 | 4.8 | 12.9 | 0.00 | 0.43 | 0.15 | 39 | 1008.8 |
| 20260505231511 | 12 | 345 | 6.4 | 14.5 | 0.00 | 0.43 | 0.15 | 38 | 1008.9 |
| 20260505230007 | 12 | 342 | 6.4 | 11.3 | 0.00 | 0.43 | 0.15 | 38 | 1008.8 |
| 20260505224507 | 12 | 333 | 0.0 | 9.7 | 0.00 | 0.43 | 0.15 | 40 | 1009.1 |
| 20260505223010 | 13 | 118 | 4.8 | 14.5 | 0.00 | 0.43 | 0.15 | 38 | 1009.1 |
| 20260505221505 | 13 | 54 | 1.6 | 11.3 | 0.00 | 0.43 | 0.15 | 36 | 1009.1 |
| 20260505220008 | 13 | 232 | 3.2 | 12.9 | 0.00 | 0.43 | 0.15 | 36 | 1009.1 |
| 20260505214507 | 13 | 117 | 1.6 | 12.9 | 0.00 | 0.43 | 0.15 | 36 | 1009.3 |
| 20260505213004 | 13 | 323 | 1.6 | 11.3 | 0.00 | 0.43 | 0.15 | 36 | 1009.3 |
| 20260505211504 | 13 | 338 | 4.8 | 16.1 | 0.00 | 0.43 | 0.15 | 34 | 1009.5 |
| 20260505210004 | 13 | 360 | 3.2 | 12.9 | 0.00 | 0.43 | 0.15 | 35 | 1009.4 |
| 20260505204503 | 12 | 355 | 1.6 | 9.7 | 0.00 | 0.43 | 0.15 | 36 | 1009.4 |
| 20260505203001 | 12 | 314 | 4.8 | 14.5 | 0.00 | 0.43 | 0.15 | 35 | 1009.5 |
| 20260505201609 | 12 | 342 | 1.6 | 12.9 | 0.00 | 0.43 | 0.15 | 38 | 1009.7 |
| 20260505200107 | 12 | 5 | 3.2 | 11.3 | 0.00 | 0.43 | 0.15 | 38 | 1009.7 |
| 20260505194608 | 12 | 12 | 1.6 | 6.4 | 0.00 | 0.43 | 0.15 | 38 | 1009.7 |
| 20260505193058 | 13 | 355 | 6.4 | 14.5 | 0.00 | 0.43 | 0.15 | 38 | 1009.5 |
| 20260505191558 | 13 | 355 | 1.6 | 9.7 | 0.00 | 0.43 | 0.15 | 43 | 1009.7 |
| 20260505184557 | 12 | 295 | 3.2 | 16.1 | 0.00 | 0.43 | 0.15 | 42 | 1009.8 |
| 20260505183059 | 12 | 86 | 3.2 | 14.5 | 0.00 | 0.43 | 0.15 | 43 | 1009.8 |
| 20260505181556 | 13 | 17 | 3.2 | 17.7 | 0.00 | 0.43 | 0.15 | 43 | 1009.8 |
| 20260505180055 | 13 | 338 | 3.2 | 12.9 | 0.00 | 0.43 | 0.15 | 40 | 1009.7 |
| 20260505174555 | 13 | 321 | 1.6 | 17.7 | 0.03 | 0.43 | 0.15 | 42 | 1009.6 |
| 20260505173054 | 13 | 54 | 3.2 | 12.9 | 0.03 | 0.43 | 0.15 | 42 | 1009.4 |
| 20260505171554 | 12 | 171 | 3.2 | 12.9 | 0.03 | 0.43 | 0.15 | 41 | 1009.3 |
| 20260505170052 | 12 | 5 | 6.4 | 17.7 | 0.03 | 0.43 | 0.15 | 41 | 1009.3 |
| 20260505164604 | 13 | 32 | 8.0 | 19.3 | 0.00 | 0.41 | 0.13 | 42 | 1009.0 |
| 20260505163053 | 12 | 12 | 6.4 | 17.7 | 0.00 | 0.41 | 0.13 | 43 | 1009.1 |
| 20260505161554 | 12 | 22 | 4.8 | 12.9 | 0.00 | 0.41 | 0.13 | 46 | 1009.4 |
| 20260505153050 | 11 | 18 | 1.6 | 6.4 | 0.00 | 0.41 | 0.13 | 64 | 1009.0 |
| 20260505151548 | 10 | 360 | 1.6 | 8.0 | 0.00 | 0.41 | 0.13 | 68 | 1008.9 |
| 20260505124538 | 7 | 17 | 0.0 | 6.4 | 0.08 | 0.36 | 0.08 | 80 | 1008.8 |
| 20260505123033 | 7 | 360 | 3.2 | 9.7 | 0.05 | 0.33 | 0.05 | 76 | 1009.1 |
| 20260505121530 | 8 | 5 | 3.2 | 11.3 | 0.05 | 0.33 | 0.05 | 72 | 1008.7 |
| 20260505120026 | 8 | 343 | 3.2 | 12.9 | 0.00 | 0.28 | 0.00 | 69 | 1009.0 |
| 20260505114521 | 9 | 9 | 8.0 | 14.5 | 0.00 | 0.28 | 0.00 | 61 | 1009.1 |
| 20260505113017 | 10 | 12 | 4.8 | 14.5 | 0.00 | 0.28 | 0.00 | 56 | 1007.8 |
| 20260505111515 | 10 | 360 | 8.0 | 14.5 | 0.00 | 0.28 | 0.00 | 57 | 1007.8 |
| 20260505101511 | 11 | 5 | 0.0 | 4.8 | 0.00 | 0.28 | 0.00 | 60 | 1006.7 |
| 20260505100004 | 11 | 5 | 6.4 | 11.3 | 0.00 | 0.28 | 0.00 | 57 | 1006.3 |
| 20260505094505 | 11 | 355 | 3.2 | 11.3 | 0.00 | 0.28 | 0.00 | 59 | 1005.9 |
| 20260505093103 | 11 | 15 | 1.6 | 6.4 | 0.00 | 0.28 | 0.00 | 60 | 1005.7 |
| 20260505091613 | 11 | 348 | 0.0 | 9.7 | 0.00 | 0.28 | 0.00 | 60 | 1005.9 |
| 20260505090057 | 11 | 298 | 0.0 | 9.7 | 0.00 | 0.28 | 0.00 | 59 | 1006.2 |
| 20260505084554 | 11 | 332 | 0.0 | 8.0 | 0.00 | 0.28 | 0.00 | 58 | 1005.3 |
| 20260505083051 | 11 | 314 | 1.6 | 6.4 | 0.00 | 0.28 | 0.00 | 57 | 1004.9 |
| 20260505081552 | 11 | 17 | 3.2 | 11.3 | 0.00 | 0.28 | 0.00 | 56 | 1004.3 |
| 20260505080051 | 12 | 360 | 0.0 | 8.0 | 0.00 | 0.28 | 0.00 | 55 | 1003.7 |
| 20260505074542 | 12 | 11 | 1.6 | 8.0 | 0.00 | 0.28 | 0.00 | 54 | 1003.6 |
| 20260505073044 | 12 | 360 | 1.6 | 11.3 | 0.00 | 0.28 | 0.00 | 53 | 1003.4 |
| 20260505071537 | 12 | 14 | 3.2 | 12.9 | 0.00 | 0.28 | 0.00 | 53 | 1003.2 |
| 20260505070041 | 13 | 17 | 3.2 | 11.3 | 0.00 | 0.28 | 0.00 | 51 | 1002.9 |
| 20260505064533 | 13 | 13 | 0.0 | 9.7 | 0.00 | 0.28 | 0.00 | 50 | 1002.7 |